Location: Brompton
(51.4000°N, 0.5333°E)
Time: 03:48:04
(UTC+00:00)

CZ-4C R/B - Pass Details

Date: 11 May 2021
Orbit: 609 x 1392 km, 63.4° (Epoch: 13 June)

Event Time Altitude Azimuth Distance (km) Brightness Sun altitude
Rises 22:14:48 0° 311° (NW) 3,879 6.9 -17.2°
Reaches altitude 10° 22:17:40 10° 301° (WNW) 3,036 5.9 -17.3°
Maximum altitude 22:23:49 29° 245° (WSW) 2,113 4.2 -17.7°
Enters shadow 22:28:58 16° 197° (SSW) 2,933 4.5 -18.0°
